CAPE
0 47 295 440 353 587 353 258 437 232 354 631 338 115 228 560 489 452 416 305 234 171 14 4 7 23 24 6 5 4 5 31 68 99 83 93 32 10 103 180 0 0 4
0 154 324 409 383 772 378 464 516 710 747 633 595 486 461 390 327 220 129 32 12 10 5 3 3 6 20 9 8 3 0 0 0 1 2 31 38 40 75 158 97 59 18
0 227 299 559 339 908 580 476 568 852 757 612 485 411 315 217 65 1 0 0 0 0 0 2 4 4 4 0 0 0 0 0 0 0 14 28 51 110 125 91 114 257 208
64 330 370 630 526 953 758 462 466 748 677 383 282 256 107 16 2 0 0 0 0 0 0 0 0 0 0 0 0 0 0 0 0 0 0 1 6 71 66 118 154 140 116
186 483 536 649 640 1127 898 514 420 389 636 318 208 104 10 3 0 0 0 0 0 0 0 0 0 1 0 0 0 0 22 13 0 0 0 0 2 12 38 27 47 63 36
297 557 553 627 677 1283 837 467 321 832 621 356 116 7 3 1 1 1 1 0 0 1 0 2 2 2 0 0 7 10 12 0 0 0 3 33 64 58 62 37 18 15 18
452 509 573 652 642 1243 739 452 455 623 475 212 15 2 0 1 2 2 3 0 1 0 1 3 6 7 1 6 6 0 0 0 0 27 38 50 39 31 27 20 11 7 4
536 463 624 610 622 983 620 325 737 577 355 35 3 0 1 3 3 2 2 0 1 0 3 4 22 10 10 4 2 0 0 0 21 27 27 35 26 33 12 3 2 1 0
580 512 620 597 647 675 399 813 720 459 90 2 0 2 4 4 5 4 1 0 0 1 3 7 12 8 7 14 9 1 0 0 3 10 27 26 14 11 4 2 1 0 0
597 562 514 550 731 629 850 749 460 95 1 0 0 4 3 1 4 5 1 0 0 7 1 29 12 18 11 3 0 0 0 0 7 13 20 21 4 9 3 9 2 2 3
458 462 503 483 639 703 731 361 66 0 0 0 0 1 0 1 1 0 0 0 5 5 12 20 20 7 0 0 0 0 0 0 0 4 12 3 0 4 9 4 4 4 2
292 263 504 703 609 399 165 21 0 2 0 0 0 0 0 0 0 0 0 0 5 6 27 20 3 0 0 0 0 0 0 0 0 0 2 0 4 5 4 5 3 2 6
0 422 545 645 286 82 0 0 0 0 0 0 0 0 0 0 0 0 0 0 0 0 19 0 0 0 0 0 0 0 0 0 0 0 0 0 5 6 8 5 5 2 1
2 1 0 206 49 2 0 0 0 0 0 0 0 0 0 0 0 0 0 0 0 0 0 0 0 0 0 0 0 0 0 0 0 0 0 3 7 9 6 7 4 4 2
0 0 0 14 9 0 0 0 0 0 0 0 0 0 0 0 0 0 0 0 0 0 0 0 0 0 0 0 0 0 0 0 0 0 0 0 4 8 10 10 9 7 5
0 0 0 0 2 1 0 0 0 0 0 0 0 0 0 0 0 0 0 0 0 0 0 0 0 0 0 0 0 0 0 0 0 0 0 0 0 0 1 3 2 4 3
0 0 0 0 0 2 0 0 0 0 0 0 0 0 0 0 0 0 0 0 0 0 0 0 0 0 0 0 0 0 0 0 0 0 0 0 0 0 0 0 0 0 1
2 0 0 0 0 0 1 0 0 0 0 0 0 0 0 0 0 0 0 0 0 0 0 0 0 0 0 0 0 0 0 0 0 0 0 0 0 0 0 0 0 0 0
0 1 0 0 0 0 0 0 0 0 0 0 0 0 0 0 0 0 0 0 0 0 0 0 0 0 0 0 0 0 0 0 0 0 0 0 0 0 0 0 0 0 0
2 3 0 2 1 0 0 0 0 0 0 0 0 0 0 0 0 0 0 0 0 0 0 0 0 0 0 0 0 0 0 0 0 0 0 0 0 0 0 0 0 0 0
3 1 1 0 0 0 0 0 0 0 0 0 0 0 0 0 0 0 0 0 0 0 0 0 0 0 0 0 0 0 0 0 0 0 0 0 0 0 0 0 0 0 0
3 0 2 0 0 0 0 0 0 0 0 0 0 0 0 0 0 0 0 0 0 0 0 0 0 0 0 0 0 0 0 0 0 0 0 0 0 0 0 0 0 0 0
1 2 0 0 0 0 0 0 0 0 0 0 0 0 0 0 0 0 0 0 0 0 0 0 0 0 0 0 0 0 0 0 0 0 0 0 0 0 0 0 0 0 0
10 1 2 1 1 1 1 0 0 0 0 0 0 0 0 0 0 0 0 0 0 0 0 0 0 0 0 0 0 0 0 0 0 0 0 0 0 0 0 0 0 0 0
30 1 1 2 1 2 2 1 1 0 0 0 0 0 0 0 0 0 0 0 0 0 0 0 0 0 0 0 0 0 0 0 0 0 0 0 0 0 0 0 0 0 0
50 10 2 2 2 1 3 2 2 0 0 0 0 0 0 0 0 0 0 0 0 0 0 0 0 0 0 0 0 0 0 0 0 0 0 0 0 0 0 0 0 0 0
CIN
0 -591 -393 -289 -288 -178 -228 -248 -159 -245 -161 -79 -146 -255 -173 -56 -62 -54 -60 -87 -110 -133 -275 -40 -95 -98 -226 0 0 0 -58 -325 -283 -260 -261 -258 -300 -38 -233 -171 0 0 -80
0 -487 -356 -301 -285 -134 -219 -162 -122 -57 -41 -64 -72 -99 -103 -116 -117 -144 -184 -285 -312 -312 0 0 0 0 -30 -2 0 0 0 0 0 -1 -17 -269 -327 -288 -278 -206 -252 -288 -309
0 -409 -341 -233 -288 -102 -133 -148 -97 -39 -39 -53 -99 -126 -153 -191 -294 -1 0 0 0 0 0 0 0 0 0 0 0 0 0 0 0 0 -5 0 -318 -264 -254 -266 -231 -152 -170
-529 -351 -305 -204 -197 -83 -87 -135 -123 -54 -59 -118 -172 -181 -271 -388 0 0 0 0 0 0 0 0 0 0 0 0 0 0 0 0 0 0 0 0 0 -275 -269 -214 -189 -197 -222
-354 -277 -255 -187 -148 -42 -52 -109 -122 -123 -64 -142 -218 -287 -433 0 0 0 0 0 0 0 0 0 0 0 0 0 0 0 -8 -12 0 0 0 0 -1 0 -55 -77 -77 -269 -327
-254 -201 -209 -171 -120 -14 -43 -105 -145 -38 -71 -122 -265 -470 0 0 0 0 0 0 0 0 0 0 0 0 0 0 0 -2 -12 0 0 0 -2 -9 -315 -309 -334 0 -2 0 0
-182 -171 -172 -139 -100 -5 -42 -87 -78 -57 -96 -178 -327 0 0 0 0 0 0 0 0 0 0 0 0 0 0 0 0 0 0 0 0 -110 -419 -360 -1 0 -1 0 -2 0 0
-140 -134 -116 -119 -96 -15 -39 -104 -16 -50 -117 -337 0 0 0 0 0 0 0 0 0 0 0 0 0 0 0 0 0 0 0 0 -8 -26 -6 -1 -2 0 -1 -2 0 0 0
-92 -66 -60 -80 -60 -39 -72 -7 -17 -69 -234 0 0 0 0 0 0 0 0 0 0 0 -1 0 0 -1 0 -1 -9 -2 0 0 -27 -21 -2 -1 -1 -1 -1 -1 0 0 0
-46 -30 -35 -39 -18 -27 -4 -14 -53 -187 0 0 0 -1 -1 -1 -1 0 0 0 0 0 0 0 -2 -2 0 -13 0 0 0 0 -17 -5 0 0 -1 0 -2 0 0 0 0
-1 -14 -15 -4 -9 -19 -13 -59 -197 -35 0 0 0 -2 0 0 -1 0 0 0 -1 0 0 -3 -2 0 0 0 0 0 0 0 0 0 0 -2 0 -1 -1 -1 0 0 0
-35 -49 -11 -1 -2 -45 -105 -241 0 -1 0 0 0 0 0 0 0 0 0 -1 0 -1 0 0 0 0 0 0 0 0 0 0 0 0 -1 0 -2 -1 -1 0 0 0 -1
0 -5 0 0 -37 -120 -37 0 0 0 0 0 0 0 0 0 0 0 0 0 -2 0 -1 0 0 0 0 0 0 0 0 0 0 0 0 0 0 0 -1 0 0 0 0
0 0 0 -16 -84 -36 0 0 0 0 0 0 0 0 0 0 0 0 0 0 0 0 0 0 0 0 0 0 0 0 0 0 0 0 0 -2 -1 0 0 -1 -1 0 0
0 0 0 -24 -78 0 0 0 0 0 0 0 0 0 0 0 0 0 0 0 0 0 0 0 0 0 0 0 0 0 0 0 0 0 0 0 -2 0 -1 0 0 -1 0
0 0 0 0 0 0 0 0 0 0 0 0 0 0 0 0 0 0 0 0 0 0 0 0 0 0 0 0 0 0 0 0 0 0 0 0 0 0 0 -1 0 0 -1
0 0 0 0 0 0 0 0 0 0 0 0 0 0 0 0 0 0 0 0 0 0 0 0 0 0 0 0 0 0 0 0 0 0 0 0 0 0 0 0 0 0 0
0 0 0 0 0 0 0 0 0 0 0 0 0 0 0 0 0 0 0 0 0 0 0 0 0 0 0 0 0 0 0 0 0 0 0 0 0 0 0 0 0 0 0
0 0 0 0 0 0 0 0 0 0 0 0 0 0 0 0 0 0 0 0 0 0 0 0 0 0 0 0 0 0 0 0 0 0 0 0 0 0 0 0 0 0 0
0 0 0 0 0 0 0 0 0 0 0 0 0 0 0 0 0 0 0 0 0 0 0 0 0 0 0 0 0 0 0 0 0 0 0 0 0 0 0 0 0 0 0
0 0 0 0 0 0 0 0 0 0 0 0 0 0 0 0 0 0 0 0 0 0 0 0 0 0 0 0 0 0 0 0 0 0 0 0 0 0 0 0 0 0 0
0 0 0 0 0 0 0 0 0 0 0 0 0 0 0 0 0 0 0 0 0 0 0 0 0 0 0 0 0 0 0 0 0 0 0 0 0 0 0 0 0 0 0
0 0 0 0 0 0 0 0 0 0 0 0 0 0 0 0 0 0 0 0 0 0 0 0 0 0 0 0 0 0 0 0 0 0 0 0 0 0 0 0 0 0 0
-14 0 0 0 0 0 0 0 0 0 0 0 0 0 0 0 0 0 0 0 0 0 0 0 0 0 0 0 0 0 0 0 0 0 0 0 0 0 0 0 0 0 0
-32 -5 0 0 0 0 0 0 0 0 0 0 0 0 0 0 0 0 0 0 0 0 0 0 0 0 0 0 0 0 0 0 0 0 0 0 0 0 0 0 0 0 0
-23 -42 0 0 0 0 0 0 0 0 0 0 0 0 0 0 0 0 0 0 0 0 0 0 0 0 0 0 0 0 0 0 0 0 0 0 0 0 0 0 0 0 0
Wind_Speed
9 9 12 12 11 11 10 11 12 12 9 11 14 16 17 18 18 19 19 16 8 7 13 11 11 11 11 12 14 16 18 18 18 20 23 24 24 23 22 22 23 22 22
8 10 12 12 12 11 10 9 9 8 6 8 9 11 11 11 13 14 13 10 10 10 12 12 13 12 11 13 16 18 19 19 20 21 23 23 23 23 22 21 22 22 22
7 10 12 11 12 11 11 9 7 6 6 6 6 7 7 8 9 10 10 9 9 11 12 12 12 13 14 15 16 17 18 20 20 21 22 22 21 21 22 21 22 22 22
6 11 12 12 11 11 11 9 8 6 5 4 4 4 3 4 5 7 9 9 10 11 12 12 13 14 15 16 16 15 17 19 19 19 20 21 21 21 21 21 21 22 23
11 11 11 13 12 10 10 9 8 7 6 4 3 3 2 2 1 5 7 9 10 10 12 13 13 13 14 16 16 17 18 18 19 18 19 19 20 20 20 20 20 20 21
16 14 14 13 13 11 10 10 9 7 7 5 4 3 4 4 1 3 6 7 8 10 11 12 12 13 14 16 16 16 16 16 16 17 18 19 20 21 21 21 19 20 21
20 20 16 14 14 13 11 10 9 8 7 6 5 5 6 4 2 2 5 5 7 8 10 10 12 14 15 16 15 15 15 15 16 17 19 20 20 20 20 20 20 20 20
23 23 21 17 15 14 13 12 10 9 8 7 7 7 7 6 3 0 2 4 5 7 10 11 14 16 16 17 16 16 16 17 18 18 18 18 19 19 20 20 20 20 20
24 26 25 21 19 15 15 14 11 9 9 8 8 8 8 7 4 3 0 2 3 6 8 11 14 16 18 18 18 17 17 17 17 17 18 18 19 19 19 20 20 21 20
25 27 26 25 23 18 16 14 13 11 10 9 8 8 8 7 6 5 3 1 2 5 7 11 13 16 16 16 17 17 17 17 17 17 18 19 19 19 19 20 21 21 21
29 29 28 26 25 23 16 15 13 12 11 9 8 8 9 10 8 6 6 2 1 3 5 10 12 13 13 13 14 15 15 17 17 18 18 19 19 19 20 21 21 22 22
32 31 28 31 27 23 20 16 15 14 14 13 10 9 10 10 8 7 4 3 1 1 5 7 8 9 9 10 12 13 15 17 18 18 17 18 18 19 20 20 21 22 22
28 34 33 31 29 26 22 18 17 17 15 14 12 11 10 10 9 9 8 7 4 3 1 2 3 4 8 10 11 12 14 15 17 18 18 18 18 19 20 20 21 22 21
25 17 28 35 31 28 24 22 20 18 17 15 14 13 11 11 11 10 9 7 7 7 4 1 2 4 8 10 11 12 13 14 16 18 19 19 18 19 19 20 20 21 21
35 23 27 39 33 30 26 24 21 19 18 16 15 14 13 12 11 11 9 9 8 7 5 2 1 3 6 8 8 9 11 12 15 17 18 18 18 18 19 19 20 21 21
27 31 28 22 37 33 29 25 23 20 18 17 16 14 13 12 11 11 10 9 8 7 6 4 1 1 4 6 7 8 9 11 13 15 16 17 17 18 18 19 19 20 20
25 20 28 28 16 35 28 24 22 20 18 17 16 14 13 12 12 12 11 10 9 8 5 4 3 2 3 4 6 7 8 10 11 12 14 15 16 17 17 18 18 19 20
25 23 25 17 17 15 15 24 21 19 18 18 16 15 14 14 13 12 12 11 9 8 6 5 4 2 2 3 5 6 7 9 10 11 12 13 14 15 17 17 18 19 19
23 23 19 18 19 13 18 15 20 20 19 18 17 16 15 14 13 12 11 11 10 9 8 6 6 5 3 3 5 6 8 9 9 10 11 12 13 14 15 17 18 19 19
18 16 14 14 13 8 7 16 17 20 21 20 19 17 16 15 14 12 11 11 10 10 9 9 7 7 6 4 5 8 10 10 11 11 11 12 13 14 15 15 17 18 18
15 13 12 12 11 5 9 16 24 23 23 21 20 17 16 15 14 13 12 11 11 10 10 9 8 7 8 8 8 11 13 14 13 13 13 13 13 14 15 16 16 17 18
19 18 13 9 5 3 4 11 23 23 23 21 21 18 17 15 14 13 13 12 11 11 10 10 9 10 12 10 12 12 15 17 16 16 15 15 15 15 16 17 17 17 17
19 18 16 13 14 10 6 7 11 22 21 23 22 20 18 16 14 14 14 13 13 12 12 11 11 12 12 14 13 14 17 18 16 17 16 17 17 17 17 18 19 18 18
17 18 18 14 13 11 7 7 10 18 25 26 24 21 19 17 15 15 14 14 13 13 13 13 13 14 13 14 15 15 16 16 19 20 21 20 19 19 20 20 20 20 20
14 16 15 12 11 10 10 13 11 18 22 20 21 22 20 16 15 15 14 14 14 13 13 13 13 14 15 15 17 16 17 19 19 22 28 22 20 21 22 21 20 21 20
13 13 13 9 11 11 11 10 15 8 12 13 21 21 19 19 16 15 15 14 14 14 13 13 14 14 14 16 17 17 20 24 22 22 22 20 22 23 21 20 20 20 20
Wind_Direction
271 167 155 150 144 138 131 126 120 118 114 102 99 98 98 96 94 93 89 79 54 36 54 41 37 34 31 34 43 45 50 46 42 50 59 63 60 54 49 45 50 47 43
266 174 163 157 150 145 140 135 130 127 124 106 95 92 87 82 85 80 75 63 52 44 43 43 51 44 31 42 57 64 61 58 56 58 65 63 59 59 52 38 55 52 50
242 191 172 168 160 153 149 150 153 149 136 118 102 93 85 81 79 76 69 54 44 42 46 46 52 57 57 59 63 65 63 70 63 58 60 59 55 51 46 39 33 39 43
234 203 183 179 171 166 157 163 167 180 175 147 122 107 100 83 74 68 65 55 46 45 48 51 56 64 68 71 65 55 56 70 62 57 53 53 54 50 45 39 38 39 39
251 212 202 185 181 186 168 170 172 192 198 168 151 155 193 234 53 61 56 54 51 49 53 56 58 58 63 69 68 62 68 64 58 48 48 51 56 53 46 41 36 32 31
248 227 216 193 191 199 180 180 175 189 185 188 183 204 226 245 280 49 61 54 52 53 54 57 53 59 64 69 67 62 59 58 49 43 47 51 53 55 46 39 34 28 24
246 232 220 207 201 208 194 191 183 180 200 206 215 223 236 240 251 58 59 50 52 51 57 53 55 69 71 68 62 57 54 50 46 49 52 54 52 43 38 31 28 22 18
242 233 225 217 208 210 207 198 192 187 205 217 228 235 234 238 240 191 52 45 47 56 67 62 70 73 72 70 63 57 56 56 58 55 52 46 43 36 29 21 19 14 12
240 231 227 224 220 210 206 211 200 197 210 221 231 234 233 235 237 240 8 36 40 65 65 72 77 78 77 72 67 61 57 57 54 46 47 43 38 32 26 19 15 14 18
238 229 227 226 224 218 216 206 207 211 214 222 227 229 231 232 237 241 246 282 61 72 68 80 80 81 77 70 66 63 60 54 52 49 47 46 38 29 26 26 23 25 26
237 228 225 225 224 224 214 209 213 214 218 217 222 221 229 237 237 241 245 235 106 75 80 81 80 77 70 60 57 58 54 57 59 54 48 42 39 35 32 32 31 28 32
236 227 228 224 223 222 219 215 218 222 227 229 225 222 230 234 237 239 233 219 155 165 95 82 75 69 58 54 53 52 56 60 57 54 47 37 38 41 39 37 32 29 30
271 228 229 227 221 220 218 221 227 228 229 228 224 224 226 231 234 236 235 235 234 225 186 83 53 28 52 58 55 54 56 52 54 52 44 41 45 45 41 36 31 29 32
282 261 254 226 220 218 217 223 226 228 228 229 229 225 226 229 229 230 232 230 236 239 226 225 8 38 56 60 63 60 52 53 52 52 52 50 48 43 39 36 32 28 27
266 268 257 234 222 216 216 222 225 228 229 228 228 229 228 225 224 227 230 231 235 235 228 235 11 39 52 57 52 50 45 44 48 54 54 42 40 39 36 34 31 29 25
263 265 270 279 232 215 213 217 223 227 227 227 228 228 227 225 221 223 226 228 231 231 236 238 247 19 34 44 46 39 38 40 45 48 48 42 34 35 34 31 29 27 25
258 261 260 257 267 216 211 214 219 224 226 227 227 226 226 225 222 223 227 230 230 231 226 235 250 298 22 25 38 30 31 35 39 38 37 37 36 27 25 24 22 21 20
252 250 242 254 255 270 237 224 218 219 224 227 226 226 229 231 229 228 229 230 230 227 224 231 243 274 338 4 17 10 11 17 23 25 27 31 29 25 18 15 16 15 14
254 250 253 260 255 272 246 220 227 222 226 228 229 231 232 233 233 229 228 230 228 230 233 233 253 267 288 316 341 344 345 353 1 7 14 15 18 15 12 9 8 10 10
253 253 260 251 243 254 238 224 230 235 232 231 232 234 233 233 233 231 229 228 229 231 236 243 249 268 280 299 326 330 328 332 339 348 356 357 2 2 3 3 1 2 4
251 259 270 254 265 274 230 238 239 235 236 234 235 232 232 232 231 231 231 229 231 231 235 241 255 259 277 286 304 312 316 319 324 329 335 338 344 345 348 350 354 353 355
249 256 264 261 235 211 150 228 240 241 238 238 236 235 234 232 231 233 233 233 233 235 238 242 249 265 279 278 296 305 306 309 313 316 323 325 328 331 332 336 339 344 347
260 262 263 264 265 251 233 193 251 246 242 238 235 236 237 234 233 236 239 239 240 243 243 248 254 266 274 281 292 306 307 307 315 315 319 318 321 322 325 330 329 333 336
270 264 260 270 270 262 222 189 215 250 238 233 233 236 237 238 237 240 241 243 244 249 250 255 261 269 277 280 292 302 308 310 309 313 314 315 318 317 318 323 325 326 330
282 273 270 271 261 249 238 239 239 239 237 228 229 232 235 237 241 241 244 245 247 251 256 261 267 273 283 284 292 298 304 308 310 309 308 309 314 315 317 320 323 324 327
292 284 277 276 263 247 242 241 245 244 245 242 225 230 233 237 241 244 246 249 253 257 259 263 268 272 279 286 294 300 304 306 306 308 306 310 314 317 321 321 322 325 327